Theta_e
300 303 304 306 307 302 300 306 308 311 314 316 320 322 323 324 324 325 327 328 328 328 330 329 328 328 329 329 328 326 320 326 328 325 325 325 323 326 328 335 334 336 335 334 336
300 301 303 305 306 307 301 299 305 308 312 313 315 319 321 322 322 322 323 326 327 327 328 328 328 328 328 328 327 321 320 324 324 324 325 325 326 328 331 333 334 334 336 336 337
304 300 302 303 305 307 305 300 299 306 309 312 312 314 315 318 320 322 322 323 325 326 327 328 327 328 328 328 327 319 320 322 323 325 325 325 328 328 329 328 334 335 336 337 336
302 303 302 302 302 305 306 304 300 301 307 310 311 313 315 316 323 320 321 321 324 325 325 326 326 327 328 327 325 323 319 321 323 324 324 325 328 328 329 328 331 333 334 336 336
299 303 303 302 301 301 305 306 303 299 304 308 311 313 315 315 319 319 319 321 324 323 323 325 326 327 327 327 324 320 319 320 322 323 324 326 327 327 328 329 330 334 336 335 336
297 301 302 303 301 300 300 305 306 301 301 307 312 313 314 315 317 319 318 318 321 322 322 323 325 327 327 325 327 325 322 322 322 324 324 325 327 328 328 329 332 335 336 335 336
302 302 300 302 303 301 299 300 306 304 300 306 311 312 313 313 314 316 319 318 318 322 321 323 325 326 326 323 321 319 321 320 322 321 324 325 328 327 328 330 334 336 336 336 336
303 303 301 301 303 302 299 299 305 305 300 306 311 313 313 313 315 317 317 318 319 321 321 322 324 325 323 321 321 320 320 327 317 318 321 325 329 326 329 332 336 336 336 337 337
301 301 302 301 303 302 300 299 305 305 301 306 310 312 312 312 313 315 316 317 318 320 321 322 323 322 321 324 325 322 330 322 321 316 315 324 327 324 329 334 336 336 337 337 337
300 301 302 300 302 301 298 301 306 301 305 307 309 312 310 312 313 315 315 316 317 317 321 320 321 321 322 325 333 326 326 321 324 317 316 320 324 316 324 331 335 336 337 337 337
301 302 302 301 300 300 299 305 303 304 308 307 309 310 310 311 312 314 316 316 316 316 319 319 322 324 323 323 323 323 326 326 316 318 317 317 317 316 317 325 330 334 336 337 336
302 302 300 298 299 299 302 303 303 305 306 307 309 310 310 310 311 314 316 316 315 317 318 318 323 321 321 322 324 323 325 323 320 319 318 320 320 318 317 318 327 331 334 336 336
302 302 301 299 299 299 302 304 305 307 306 306 308 310 309 309 310 310 315 315 315 317 317 319 320 320 322 323 324 324 323 323 323 321 319 321 323 320 318 315 318 323 324 330 332
302 302 301 303 302 303 305 304 306 306 305 303 308 309 309 309 309 310 314 315 316 318 317 319 318 321 322 323 323 325 321 322 322 323 327 321 328 324 319 318 312 316 315 319 325
303 302 304 304 304 304 304 304 304 305 302 303 308 309 308 309 310 313 313 314 316 317 318 319 320 322 323 322 321 322 319 321 321 322 321 322 324 323 317 320 313 307 308 310 311
302 305 304 304 304 304 304 304 304 302 299 308 308 309 310 309 310 312 314 313 312 315 313 312 312 318 320 319 319 316 316 316 315 319 322 321 323 325 324 321 320 308 308 309 310
304 304 303 303 303 304 304 304 305 296 298 307 308 308 309 310 310 312 312 313 314 315 314 313 314 311 317 319 317 316 320 319 320 321 324 317 322 323 315 322 320 315 312 313 311
303 302 303 303 304 305 302 300 304 292 296 303 304 307 310 309 310 311 311 310 306 311 314 317 316 313 314 317 318 318 317 320 320 320 316 312 321 318 310 310 322 322 320 321 316
302 302 303 303 304 303 303 301 301 296 301 303 305 308 309 309 310 311 312 312 309 309 312 313 315 310 310 314 316 317 319 312 309 303 311 314 313 307 306 306 313 316 319 313 311
301 302 302 303 304 304 297 301 299 302 301 303 305 305 308 309 310 311 311 309 310 309 309 310 314 310 312 313 313 315 313 313 311 314 313 310 307 307 306 307 308 308 308 308 307
302 301 302 303 302 300 293 299 301 303 302 304 303 304 306 309 309 310 309 306 307 310 309 309 311 311 311 313 317 310 313 308 309 309 310 310 307 304 306 307 308 308 307 307 307
301 293 302 302 298 293 292 296 300 302 303 303 303 304 305 305 306 308 308 307 305 308 312 309 311 312 311 309 310 310 309 307 312 308 305 307 309 305 305 306 306 306 306 305 304
300 299 301 302 291 294 292 298 300 300 301 303 304 304 303 305 305 304 305 303 305 308 310 309 309 311 311 310 308 310 309 307 305 306 307 310 308 304 304 304 305 304 304 303 302
299 292 299 299 295 293 289 294 298 299 299 299 301 302 303 304 302 304 305 303 305 308 309 308 303 306 311 308 308 309 309 307 307 308 306 305 306 305 303 303 303 303 302 301 301
298 290 294 290 292 292 295 296 295 295 297 298 299 299 302 302 301 303 304 304 303 304 306 308 302 305 304 305 308 309 310 307 308 307 306 306 308 305 304 303 302 301 301 301 300
298 295 295 296 295 295 291 291 295 292 296 298 298 297 298 299 300 298 300 304 306 304 305 304 307 304 304 303 308 309 308 308 308 308 308 308 309 303 303 304 302 301 300 299 298
298 298 299 294 290 289 292 291 297 295 296 296 296 297 297 297 296 299 299 299 300 303 304 306 304 300 303 303 307 308 306 307 308 308 308 310 308 300 300 301 300 300 299 298 298
Wind_Speed
9 8 8 8 6 6 10 10 9 7 7 10 12 10 10 9 7 8 12 13 15 11 9 17 19 19 17 6 3 1 3 3 2 2 5 7 4 8 5 15 5 7 7 10 28
10 10 8 8 9 6 7 10 11 10 9 6 7 14 12 11 9 8 11 14 16 14 13 11 12 13 9 5 4 4 3 5 2 3 4 5 5 13 6 10 4 8 7 22 30
10 11 10 9 7 9 7 6 10 12 11 9 5 5 7 13 7 6 10 12 13 13 11 10 12 12 7 8 6 5 4 3 3 5 7 4 7 8 14 3 10 18 23 33 33
14 11 12 11 9 7 9 7 7 11 12 10 9 4 4 7 5 8 10 10 10 12 10 10 12 10 6 6 7 3 4 2 7 5 8 2 4 5 18 4 15 19 22 35 35
17 14 12 12 11 9 8 9 8 8 12 10 8 4 3 4 5 11 9 8 9 7 11 13 12 7 6 6 8 6 2 4 8 11 8 8 9 7 12 2 10 23 32 34 33
11 16 13 12 13 11 9 8 9 8 12 12 10 6 6 4 7 9 9 5 4 8 9 10 7 9 5 4 13 11 7 10 9 8 6 3 3 6 12 7 17 26 34 33 33
8 8 15 13 13 11 9 9 9 9 11 11 10 10 10 10 4 11 14 5 5 9 9 11 9 9 7 3 6 6 0 3 1 4 2 3 2 6 8 17 24 29 32 31 32
12 11 12 13 11 11 9 8 8 10 11 12 8 11 6 15 10 12 8 7 8 10 9 9 11 9 4 9 3 4 3 4 1 4 1 3 6 3 10 24 27 30 31 30 29
15 12 13 14 11 9 9 7 8 10 10 11 10 9 5 9 16 14 13 10 11 11 12 11 12 5 6 6 2 2 6 9 2 3 2 2 5 4 11 23 25 29 30 28 27
14 11 11 13 13 9 7 6 8 8 7 7 9 7 7 6 13 18 16 16 6 9 10 6 4 2 2 7 11 5 9 1 7 3 3 3 4 3 2 17 23 26 27 28 27
11 11 12 11 12 9 7 8 5 3 9 6 5 3 2 8 10 17 20 17 13 4 3 5 4 7 8 6 2 10 9 12 3 1 2 2 4 5 4 9 14 21 25 27 28
9 10 9 10 11 9 11 9 7 2 4 16 6 8 2 7 3 15 21 14 11 7 4 3 4 5 4 5 3 8 13 8 3 3 2 3 4 5 4 4 18 22 24 27 24
8 10 6 9 10 13 15 12 8 2 2 4 9 7 8 8 4 12 21 8 5 8 8 5 5 9 7 4 4 5 12 12 7 3 3 2 4 4 2 2 4 9 12 21 21
8 10 7 8 9 11 14 13 5 6 2 3 5 5 9 3 4 11 24 11 5 9 8 3 7 9 7 11 8 3 3 5 7 9 6 2 4 4 1 4 6 9 11 10 11
9 8 11 11 7 11 9 12 7 3 1 3 6 7 7 8 2 7 21 12 8 6 4 5 10 10 10 9 10 2 5 7 3 4 2 2 2 3 0 3 5 14 14 18 18
10 13 11 7 8 9 9 11 11 3 5 4 4 8 7 9 2 5 8 4 3 3 3 2 1 3 2 9 8 9 8 8 5 3 4 5 8 3 7 5 4 15 15 16 20
12 12 7 7 7 8 7 14 4 4 3 3 3 6 11 6 3 6 4 6 4 6 4 2 1 1 1 8 13 6 8 2 2 3 3 5 7 2 5 6 9 13 20 15 20
11 8 5 4 6 10 5 2 2 2 2 2 1 1 6 5 4 3 9 5 1 1 3 5 4 4 1 2 6 11 5 4 6 5 3 2 5 3 3 10 25 19 13 2 10
10 8 9 7 6 8 3 3 1 2 2 2 2 4 4 3 2 4 3 4 4 3 3 3 2 3 2 1 10 4 4 2 4 3 3 3 2 2 4 7 18 18 17 13 18
7 9 7 5 4 2 3 1 1 2 2 1 1 1 5 10 7 11 9 1 5 3 2 2 3 2 4 3 2 3 5 3 1 4 2 3 4 3 6 8 13 18 23 29 25
4 4 5 2 2 4 3 2 3 3 5 2 1 0 1 6 6 4 8 1 2 6 2 4 2 1 4 1 4 4 3 4 3 2 4 4 4 2 6 11 17 25 24 27 25
2 2 3 3 4 2 2 2 2 2 3 1 2 1 2 2 3 4 5 2 1 7 7 5 3 2 2 3 2 2 4 4 3 3 1 1 2 4 7 11 20 23 27 26 24
2 3 3 1 3 1 3 2 2 4 3 2 1 2 0 1 4 3 4 1 7 2 5 5 3 2 3 3 2 3 3 3 4 3 1 3 2 6 16 18 20 27 28 23 19
2 2 3 5 5 6 3 2 3 4 0 2 3 2 1 3 4 4 4 2 4 3 3 2 3 4 4 3 5 5 4 4 3 3 1 1 5 1 6 11 18 24 24 20 15
1 1 3 0 4 3 1 3 2 4 6 12 2 4 1 3 3 3 3 3 4 2 3 1 3 2 2 3 1 2 5 5 3 3 3 6 13 8 6 11 18 23 19 16 13
3 5 5 4 2 2 4 3 2 3 4 4 5 9 8 4 2 3 1 1 2 2 2 2 2 2 5 7 2 1 6 13 7 5 4 9 3 2 15 19 20 17 15 13 11
3 10 3 3 2 4 1 3 2 2 7 7 3 3 11 6 7 14 12 9 4 2 3 3 4 2 2 4 4 4 6 7 4 4 8 6 5 11 9 15 18 15 13 11 8
Wind_Direction
253 253 251 246 259 230 231 230 223 220 209 200 198 179 189 197 192 199 222 232 235 241 234 231 233 243 249 254 306 90 57 264 256 196 280 166 126 147 157 145 161 187 172 189 171
260 251 252 247 238 243 227 236 231 225 226 220 204 226 231 198 199 215 237 236 240 241 227 224 217 213 218 163 121 97 126 240 267 307 301 313 190 152 146 149 184 172 174 167 170
258 251 249 253 247 238 236 232 236 229 229 228 230 223 242 240 250 239 228 234 233 238 228 222 215 198 176 170 170 119 189 306 289 319 315 292 193 173 147 244 197 175 159 167 171
241 249 248 250 252 246 232 233 240 230 232 235 240 246 224 189 192 182 193 203 207 217 220 206 194 177 148 172 145 115 219 249 293 312 328 314 225 193 168 210 211 187 175 171 176
238 237 241 248 254 251 242 230 236 232 228 234 241 263 206 199 230 164 134 158 170 199 211 203 192 169 157 172 139 145 265 282 297 303 307 301 248 223 197 205 185 175 171 175 181
245 230 238 244 250 255 247 238 229 234 222 222 221 225 216 226 227 199 186 148 155 207 207 198 196 186 179 191 202 173 219 277 293 307 304 315 240 189 207 188 171 175 176 181 188
229 241 236 244 248 253 255 234 228 228 221 218 218 227 227 233 253 214 220 222 217 206 194 191 181 174 154 121 157 136 111 307 273 303 279 347 245 231 197 179 172 179 182 187 193
235 250 244 231 241 249 260 233 226 225 222 210 221 220 228 229 227 193 211 217 212 201 190 168 177 180 136 126 65 116 82 242 7 339 32 140 247 239 191 176 178 183 189 194 196
238 253 243 225 234 250 261 227 216 223 218 208 220 205 235 228 219 212 187 166 140 174 164 141 153 141 133 134 132 171 199 204 211 20 288 168 240 15 186 187 184 191 194 198 202
235 241 232 228 232 245 251 206 202 218 189 196 220 207 227 217 209 200 190 202 202 143 137 142 118 134 162 181 219 162 195 107 207 341 33 5 275 8 168 198 200 198 201 202 208
220 226 223 237 222 230 211 176 167 184 191 203 240 197 136 205 203 201 194 195 209 200 172 142 180 195 188 199 337 164 189 201 134 307 148 114 260 286 332 210 208 210 209 211 214
216 214 219 212 205 211 201 190 186 174 195 216 255 197 206 180 184 213 200 180 172 189 144 114 239 180 116 149 194 215 186 174 96 334 129 16 289 269 295 213 217 216 214 217 220
208 189 198 204 199 205 209 183 182 177 66 234 217 215 195 179 234 224 193 186 182 170 193 178 146 167 164 167 168 199 206 179 162 142 94 72 319 2 323 215 192 215 233 227 224
186 194 203 184 182 198 196 193 198 188 42 247 213 229 184 221 267 231 202 196 200 178 168 237 162 171 190 196 178 182 164 123 117 162 207 75 253 220 248 353 36 110 102 115 163
167 170 153 149 160 171 188 194 196 180 34 199 161 177 187 208 289 188 193 180 173 187 161 184 171 178 193 198 176 132 170 145 122 121 105 179 180 247 16 154 77 70 91 105 106
155 153 147 149 162 185 188 186 157 66 251 177 164 185 150 189 283 158 165 161 114 110 22 87 305 183 160 128 133 129 90 68 57 77 233 174 183 213 208 170 108 88 82 99 98
145 153 146 142 158 184 192 171 175 147 273 195 185 186 179 167 226 174 156 137 157 145 166 159 12 345 155 107 138 112 140 109 147 189 212 180 185 243 241 242 153 141 111 79 85
141 147 165 151 165 167 169 109 112 210 239 343 298 157 186 140 253 198 150 131 342 238 134 160 186 180 279 169 157 147 143 162 177 184 142 144 211 243 261 218 212 207 161 205 104
132 133 127 115 145 149 151 53 163 206 265 307 247 149 183 171 147 177 210 137 162 214 125 138 115 337 219 157 148 146 167 79 99 48 87 190 227 354 52 78 121 146 147 141 121
135 113 118 131 154 204 81 130 323 232 255 253 273 359 171 172 174 182 163 152 159 222 52 183 110 356 325 103 328 183 144 79 5 139 161 231 222 192 164 140 123 128 138 145 138
135 102 125 125 94 60 116 228 279 274 184 292 289 195 301 179 181 179 175 23 169 148 30 134 51 131 319 321 163 151 136 208 129 137 159 134 252 215 159 165 149 144 144 137 129
123 60 125 173 48 31 141 203 307 340 10 15 289 4 301 107 126 152 164 65 171 151 167 178 100 175 180 249 234 326 178 174 135 219 343 52 269 332 147 131 127 126 137 130 125
88 102 91 178 119 292 313 336 323 3 16 323 334 338 41 79 107 143 117 64 175 106 172 158 174 147 72 318 66 218 213 109 109 69 167 109 272 31 92 100 121 127 131 126 124
168 54 53 66 79 123 120 312 353 334 343 341 16 306 93 56 43 150 122 67 108 130 96 119 120 184 196 200 143 177 178 148 99 98 175 109 139 178 116 122 128 130 128 126 120
232 193 129 173 12 82 99 153 49 357 347 24 64 0 12 71 37 34 72 123 73 50 71 76 127 104 50 322 307 159 167 135 131 171 158 169 169 177 162 146 140 134 130 126 115
227 153 116 94 114 125 355 326 119 288 18 16 77 38 59 75 0 195 160 59 113 95 88 23 108 71 11 6 164 175 195 177 160 104 96 124 119 145 141 141 139 138 136 133 127
183 145 148 8 61 80 244 210 102 117 60 63 12 67 53 28 50 72 79 74 80 111 115 110 128 94 256 346 37 338 214 170 139 148 150 153 183 150 125 131 146 149 149 144 142